THORAD DELTA 1 DEB, 8306

Orbit data source: Space-Track

THORAD DELTA 1 DEB, 8306 is space debris in SSO originally from a launch on Fri, 15 Nov 1974 UTC launched from the Air Force Western Test Range (AFWTR). Debris objects in space refer to the collection of defunct objects orbiting the Earth. Examples of debris include non-operational satellites, rocket bodies, and fragments generated from explosions, collisions, or faulty payload assembly.

Loading next visibility...
Identifier
8306, 1974-089BP
Orbit
SSO
Country
Flag of USUS
Related business
Manufacturer
Unknown
Mission
Spacecraft
Bus & Motor
Unknown
Mass
Unknown
Launch date (UTC)
1974-11-15 (51 years ago)
Launch vehicle
Unknown
Launch site
Air Force Western Test Range (AFWTR)
Object type
Payload
Rocket body
Debris
Shape & HBR
Unknown shape, 0.2 m
Radar Cross Section
Small (<0.1 m²)

Expand to show TLE details & history
Last TLE update: 11 hours ago

TLE from 11 hours ago
0 THORAD DELTA 1 DEB
1 08306U 74089BP  26126.35160565  .00000354  00000-0  25466-2 0  9990
2 08306 101.9890 261.3917 0080177 209.1627 182.3989 12.51583154341728
Epoch: 2026-05-06T08:26Z
TLE epoch observation values (Epoch: 2026-05-06T08:26:18.728Z)
Latitude
30.81179°
Longitude
-96.64004°
Altitude
1,524.263 km
Speed
7.078 km/s
True Right ascension
16h 56m 36s
True Declination
30° 40' 31"
Sunlit
Object was in daylight at epoch
Visualization orbit readout
Latitude
Unknown
Longitude
Unknown
Altitude
Unknown
Speed
Unknown
Apparent Right ascension
Unknown
Apparent Declination
Unknown
Sunlit
N/A
Visualization observer readout
Local Sidereal Time
03:02:01
Azimuth
Unknown
Elevation
Unknown
Doppler factor
Unknown
Orbital elements
Apogee altitude
1,518.246 km
Perigee altitude
1,392.631 km
Semi-major axis
7,833.576 km
Eccentricity
0.00802
Inclination
101.989°
RAAN
261.3917°
Arg. of periapsis
209.1627°
True anomaly
182.36083°
Mean anomaly
182.3989°
Eccentric anomaly
182.37982°
Mean motion
3.13042 °/min
Orbital period
115 mins
BSTAR
0.0025466
Loading maneuver chart data...
Computing Atmospheric mass density...

Documentation

Showing up to 5 results
|